Regional Weather Roundup
Issued by NWS

Home | Current Version | Previous Version | Graphics & Text | Print | Product List | Glossary On
Versions: 1 2 3 4 5 6 7 8 9 10 11 12 13 14 15 16 17 18 19 20 21 22 23 24 25 26 27 28 29 30 31 32 33 34 35 36 37 38 39 40 41 42 43 44 45 46 47 48 49 50
711
ASUS43 KFSD 301702
RWRSD

WEATHER ROUNDUP FOR SOUTH DAKOTA
NATIONAL WEATHER SERVICE SIOUX FALLS SD
1200 PM CDT THU MAR 30 2017

NOTE: "FAIR" INDICATES FEW OR NO CLOUDS BELOW 12,000 FEET WITH NO
SIGNIFICANT WEATHER AND/OR OBSTRUCTIONS TO VISIBILITY.


SDZ001>005-009-010-012>017-301800-
NORTHWEST AND NORTH CENTRAL SOUTH DAKOTA

CITY           SKY/WX    TMP DP  RH WIND       PRES   REMARKS
BUFFALO          N/A     52  40  63 S13       29.67S
FAITH            N/A     40  39  97 MISG      29.79S
MOBRIDGE       CLOUDY    44  34  67 SE15      29.83S
$$

SDZ012>016-024>037-041>051-057-063-072>074-301800-
SOUTHWEST AND SOUTH CENTRAL SOUTH DAKOTA

CITY           SKY/WX    TMP DP  RH WIND       PRES   REMARKS
RAPID CTY ARPT CLOUDY    46  41  82 SE13      29.76S
PIERRE         CLOUDY    41  34  76 E9        29.85F
CUSTER         CLOUDY    45  34  65 S3        29.76S
ELLSWORTH AFB  PTSUNNY   47  43  87 CALM      29.74F
PHILIP         CLOUDY    41  37  86 SE12      29.83S
PINE RIDGE     CLOUDY    50  41  71 CALM      29.77S
SPEARFISH      FAIR      46  39  76 CALM      29.73F
WINNER         CLOUDY    41  35  79 E6        29.85F
$$

SDZ004>011-016>023-039-040-301800-
NORTHEAST SOUTH DAKOTA

CITY           SKY/WX    TMP DP  RH WIND       PRES   REMARKS
ABERDEEN       CLOUDY    41  34  76 SE5       29.90S
WATERTOWN      CLOUDY    38  36  92 E9        29.86F
BROOKINGS      CLOUDY    39  35  86 E10       29.84F
SISSETON         N/A     44  38  79 SE8       29.89S
$$

SDZ017-020-022-023-036>040-048>070-301800-
SOUTHEAST SOUTH DAKOTA

CITY           SKY/WX    TMP DP  RH WIND       PRES   REMARKS
SIOUX FALLS    CLOUDY    42  38  85 NE14      29.82F
HURON          CLOUDY    42  36  79 E8        29.87F
MITCHELL       CLOUDY    45  36  70 N8        29.86F
YANKTON        CLOUDY    41  36  81 N12       29.82F
$$

ABBREVIATIONS USED IN REMARKS
   TC - TEMPERATURE IN CELSIUS
  WCI - WIND CHILL INDEX
   HX - HEAT INDEX
  VSB - VISIBILITY





USA.gov is the U.S. government's official web portal to all federal, state and local government web resources and services.